Location: Huppendorf
(49.9333°N, 11.1500°E)
Time: 20:14:36
(UTC+00:00)

Cosmos 44 Rocket - Pass Details

Date: 27 February 2020
Orbit: 659 x 731 km, 65.1° (Epoch: 07 April)

Event Time Altitude Azimuth Distance (km) Brightness Sun altitude
Rises 17:16:12 0° 321° (NW) 3,003 7.0 -4.5°
Reaches altitude 10° 17:18:35 10° 328° (NNW) 2,091 6.1 -4.8°
Maximum altitude 17:23:11 49° 43° (NE) 870 3.5 -5.6°
Drops below altitude 10° 17:27:50 10° 118° (ESE) 2,111 5.3 -6.3°
Enters shadow 17:30:01 - 124° (SE) 2,950 6.1 -6.7°
